User: anonymous   Login
Location: Unspecified
(0.0000°N, 0.0000°E)
Time: 19:00:56
(UTC+00:00)
Language:

Kosmos-1655 - Orbit

View from above orbital plane
View from above orbital plane
View from above satellite
View from above satellite

Ground track
Ground track

The orbit data is extracted from the following two-line orbital elements,

1 15751U 85041A   17084.90036750 +.00000007 +00000-0 -97080-5 0  9994
2 15751 082.9520 027.3314 0028125 088.1710 328.8568 13.71688888592633
Epoch (UTC): 25 March 2017 21:36:31
Eccentricity: 0.0028125
inclination: 82.9520°
perigee height: 973 km
apogee height: 1014 km
right ascension of ascending node: 27.3314°
argument of perigee: 88.1710°
revolutions per day: 13.71688888
mean anomaly at epoch: 328.8568°
orbit number at epoch: 59263

The dashed part of the orbit path shows where the satellite is in the earth's shadow,  

DLR